FW6569 Weather Reports


time (UTC)temp
C
wind
direction
speed
KPH
gust
KPH
rain 1hr
cm
rain 24hr
cm
rain mn
cm
humidity
%
barometer
mb
20260902095525 20 0.0 0.0 0.00 0.00 0.00 99 1019.0
20260902094525 20 0.0 0.0 0.00 0.00 0.00 99 1018.9
20260902093526 20 0.0 0.0 0.00 0.00 0.00 99 1018.9
20260902092525 20 0.0 0.0 0.00 0.00 0.00 99 1018.9
20260902091526 21 0.0 0.0 0.00 0.00 0.00 99 1018.9
20260902090525 20 0.0 0.0 0.00 0.00 0.00 99 1018.7
20260902085526 21 0.0 0.0 0.00 0.00 0.00 99 1018.8
20260902084526 21 0.0 0.0 0.00 0.00 0.00 99 1018.7
20260902083525 21 0.0 0.0 0.00 0.00 0.00 99 1018.6
20260902082526 21 0.0 0.0 0.00 0.00 0.00 99 1018.4
20260902081526 21 0.0 0.0 0.00 0.00 0.00 99 1018.3
20260902080526 21 0.0 0.0 0.00 0.00 0.00 99 1018.3
20260902075607 21 0.0 0.0 0.00 0.00 0.00 99 1018.3
20260902074526 21 0.0 0.0 0.00 0.00 0.00 98 1018.3
20260902073526 21 0.0 0.0 0.00 0.00 0.00 98 1018.3
20260902072526 21 0.0 0.0 0.00 0.00 0.00 98 1018.3
20260902071526 21 0.0 0.0 0.00 0.00 0.00 98 1018.3
20260902070526 21 0.0 0.0 0.00 0.00 0.00 98 1018.4
20260902065527 21 0.0 0.0 0.00 0.00 0.00 98 1018.4
20260902064526 21 0.0 0.0 0.00 0.00 0.00 98 1018.4
20260902063526 21 0.0 0.0 0.00 0.00 0.00 98 1018.4
20260902062526 21 0.0 0.0 0.00 0.00 0.00 98 1018.4
20260902061526 21 0.0 0.0 0.00 0.00 0.00 98 1018.4
20260902060526 21 0.0 0.0 0.00 0.00 0.00 98 1018.4
20260902055526 21 0.0 0.0 0.00 0.00 0.00 98 1018.4
20260902054526 21 0.0 0.0 0.00 0.00 0.00 98 1018.4
20260902053547 21 0.0 0.0 0.00 0.00 0.00 98 1018.3
20260902052526 22 0.0 0.0 0.00 0.00 0.00 97 1018.4
20260902051526 22 0.0 0.0 0.00 0.00 0.00 97 1018.3
20260902050547 22 0.0 0.0 0.00 0.00 0.00 97 1018.4
20260902045606 22 0.0 0.0 0.00 0.00 0.00 97 1018.3
20260902044526 22 0.0 0.0 0.00 0.00 0.00 97 1018.3
20260902043547 22 0.0 0.0 0.00 0.00 0.00 97 1018.4
20260902042526 22 0.0 0.0 0.00 0.00 0.00 97 1018.4
20260902041526 22 0.0 0.0 0.00 0.00 0.00 97 1018.4
20260902040547 22 0.0 0.0 0.00 0.00 0.00 96 1018.4
20260902035546 22 0.0 0.0 0.00 0.00 0.00 96 1018.5
20260902034526 22 0.0 0.0 0.00 0.00 0.00 96 1018.4
20260902033526 22 0.0 0.0 0.00 0.00 0.00 96 1018.4
20260902032526 23 0.0 0.0 0.00 0.00 0.00 96 1018.4
20260902031547 23 0.0 0.0 0.00 0.00 0.00 96 1018.4
20260902030526 23 0.0 0.0 0.00 0.00 0.00 95 1018.4
20260902025526 23 0.0 0.0 0.00 0.00 0.00 95 1018.4
20260902024527 23 0.0 0.0 0.00 0.00 0.00 95 1018.4
20260902023526 23 0.0 0.0 0.00 0.00 0.00 95 1018.4
20260902022527 23 0.0 0.0 0.00 0.00 0.00 95 1018.4
20260902021526 24 0.0 0.0 0.00 0.00 0.00 94 1018.4
20260902020526 24 0.0 0.0 0.00 0.00 0.00 94 1018.4
20260902015547 24 0.0 0.0 0.00 0.00 0.00 93 1018.4
20260902014546 24 0.0 0.0 0.00 0.00 0.00 93 1018.3
20260902013527 25 0.0 0.0 0.00 0.00 0.00 92 1018.3
20260902012527 25 0.0 0.0 0.00 0.00 0.00 92 1018.1
20260902011527 25 0.0 0.0 0.00 0.00 0.00 92 1018.0
20260902010527 26 0.0 0.0 0.00 0.00 0.00 92 1017.9
20260902005547 26 0.0 0.0 0.00 0.00 0.00 90 1017.8
20260902004537 26 0.0 0.0 0.00 0.00 0.00 89 1017.7
20260902003627 26 0.0 0.0 0.00 0.00 0.00 88 1017.6
20260902002527 27 200 1.6 3.2 0.00 0.00 0.00 87 1017.7
20260902001637 28 216 0.0 3.2 0.00 0.00 0.00 85 1017.8
20260902000527 28 0.0 0.0 0.00 0.00 0.00 83 1017.9
20260901235526 28 182 1.6 3.2 0.00 0.00 0.00 83 1017.9
20260901234537 30 0.0 1.6 0.00 0.00 0.00 75 1017.9
20260901233607 31 0.0 0.0 0.00 0.00 0.00 73 1018.1
20260901232527 31 0.0 0.0 0.00 0.00 0.00 71 1018.1
20260901231527 32 0.0 0.0 0.00 0.00 0.00 68 1018.1
20260901230537 33 0.0 0.0 0.00 0.00 0.00 63 1018.1
20260901225548 34 0.0 0.0 0.00 0.00 0.00 60 1018.0
20260901224537 34 0.0 0.0 0.00 0.00 0.00 62 1017.9
20260901223607 35 314 0.0 1.6 0.00 0.00 0.00 59 1018.0
20260901222527 33 242 1.6 4.8 0.00 0.00 0.00 62 1018.0
20260901221547 36 209 3.2 6.4 0.00 0.00 0.00 57 1017.9
20260901220537 36 223 3.2 8.0 0.00 0.00 0.00 56 1017.9
20260901215607 35 256 1.6 3.2 0.00 0.00 0.00 57 1017.8
20260901214528 35 246 1.6 4.8 0.00 0.00 0.00 58 1017.8
20260901213607 35 238 3.2 6.4 0.00 0.00 0.00 57 1017.8
20260901212547 35 214 6.4 9.7 0.00 0.00 0.00 56 1017.9
20260901211537 34 219 8.0 12.9 0.00 0.00 0.00 57 1017.9
20260901210527 34 216 6.4 9.7 0.00 0.00 0.00 58 1017.9
20260901205527 34 217 8.0 12.9 0.00 0.00 0.00 56 1018.1
20260901204547 33 229 9.7 16.1 0.00 0.00 0.00 55 1018.2
20260901203537 33 231 8.0 9.7 0.00 0.00 0.00 57 1018.2
20260901202558 33 218 12.9 17.7 0.00 0.00 0.00 56 1018.2
20260901201548 34 232 6.4 8.0 0.00 0.00 0.00 55 1018.2
20260901200528 34 212 9.7 14.5 0.00 0.00 0.00 58 1018.2
20260901195527 33 230 9.7 12.9 0.00 0.00 0.00 58 1018.3
20260901194607 33 216 11.3 17.7 0.00 0.00 0.00 58 1018.3
20260901193548 32 200 9.7 16.1 0.00 0.00 0.00 59 1018.5
20260901192540 32 233 8.0 14.5 0.00 0.00 0.00 58 1018.6
20260901191539 32 201 11.3 16.1 0.00 0.00 0.00 60 1018.8
20260901190558 32 224 6.4 9.7 0.00 0.00 0.00 62 1018.8
20260901185528 32 214 11.3 16.1 0.00 0.00 0.00 62 1018.9
20260901184609 32 216 9.7 16.1 0.00 0.00 0.00 62 1019.1
20260901183538 32 215 8.0 9.7 0.00 0.00 0.00 63 1019.2
20260901182528 31 210 11.3 16.1 0.00 0.00 0.00 61 1019.2
20260901181551 31 218 12.9 16.1 0.00 0.00 0.00 62 1019.2
20260901180549 31 217 9.7 16.1 0.00 0.00 0.00 61 1019.3
20260901175648 31 200 12.9 16.1 0.00 0.00 0.00 64 1019.3
20260901174539 31 232 9.7 16.1 0.00 0.00 0.00 64 1019.3
20260901173518 31 228 9.7 20.9 0.00 0.00 0.00 64 1019.5
20260901172538 31 225 9.7 17.7 0.00 0.00 0.00 64 1019.6
20260901171518 32 220 9.7 14.5 0.00 0.00 0.00 66 1019.6
20260901170548 31 228 9.7 20.9 0.00 0.00 0.00 65 1019.6
20260901165608 30 209 8.0 12.9 0.00 0.00 0.00 67 1019.7
20260901164618 30 203 11.3 16.1 0.00 0.00 0.00 69 1019.7
20260901163538 31 202 9.7 17.7 0.00 0.00 0.00 69 1019.8
20260901162538 30 258 6.4 9.7 0.00 0.00 0.00 71 1020.0
20260901161518 30 245 8.0 16.1 0.00 0.00 0.00 69 1020.0
20260901160539 29 210 11.3 16.1 0.00 0.00 0.00 71 1020.1
20260901155518 30 200 11.3 14.5 0.00 0.00 0.00 70 1020.2
20260901154539 29 228 8.0 11.3 0.00 0.00 0.00 73 1020.2
20260901153558 29 200 9.7 12.9 0.00 0.00 0.00 76 1020.3
20260901152518 29 266 6.4 11.3 0.00 0.00 0.00 73 1020.2
20260901151528 28 221 9.7 12.9 0.00 0.00 0.00 76 1020.2
20260901150608 29 231 8.0 14.5 0.00 0.00 0.00 74 1020.2
20260901145648 28 269 8.0 14.5 0.00 0.00 0.00 76 1020.2
20260901144609 28 219 8.0 12.9 0.00 0.00 0.00 76 1020.1
20260901143538 28 220 8.0 11.3 0.00 0.00 0.00 78 1020.1
20260901142539 27 208 11.3 12.9 0.00 0.00 0.00 81 1020.1
20260901141539 27 214 9.7 11.3 0.00 0.00 0.00 80 1020.3
20260901140528 27 191 9.7 11.3 0.00 0.00 0.00 80 1020.3
20260901135608 27 197 6.4 9.7 0.00 0.00 0.00 82 1020.4
20260901134558 25 202 8.0 12.9 0.00 0.00 0.00 85 1020.5
20260901133618 26 211 6.4 8.0 0.00 0.00 0.00 83 1020.5
20260901132638 25 226 3.2 8.0 0.00 0.00 0.00 84 1020.4
20260901131528 25 232 6.4 9.7 0.00 0.00 0.00 86 1020.4
20260901130548 25 207 6.4 8.0 0.00 0.00 0.00 86 1020.2
20260901125528 25 179 4.8 4.8 0.00 0.00 0.00 88 1020.2
20260901124718 23 198 1.6 6.4 0.00 0.00 0.00 94 1020.3
20260901123528 22 231 0.0 3.2 0.00 0.00 0.00 97 1020.4
20260901122628 22 0.0 0.0 0.00 0.00 0.00 98 1020.3
20260901121528 21 209 0.0 3.2 0.00 0.00 0.00 99 1020.2
20260901120538 21 0.0 0.0 0.00 0.00 0.00 99 1020.1
20260901115528 20 0.0 0.0 0.00 0.00 0.00 99 1020.1
20260901114528 20 0.0 0.0 0.00 0.00 0.00 99 1020.0
20260901113608 19 254 0.0 3.2 0.00 0.00 0.00 99 1019.8
20260901112619 19 0.0 0.0 0.00 0.00 0.00 99 1019.6
20260901111528 19 0.0 0.0 0.00 0.00 0.00 99 1019.6
20260901110528 19 0.0 0.0 0.00 0.00 0.00 98 1019.5
20260901105608 20 0.0 0.0 0.00 0.00 0.00 98 1019.3
20260901104528 20 0.0 0.0 0.00 0.00 0.00 98 1019.3
20260901103528 20 0.0 0.0 0.00 0.00 0.00 98 1019.2
20260901102608 20 0.0 0.0 0.00 0.00 0.00 98 1019.2
20260901101548 20 0.0 0.0 0.00 0.00 0.00 98 1019.1
20260901100549 20 0.0 0.0 0.00 0.00 0.00 98 1018.9